Location: Brachstadt
(48.6975°N, 10.6755°E)
Time: 07:44:15
(UTC+00:00)

Cosmos 1891 Rocket - Pass Details

Date: 18 September 2020
Orbit: 934 x 1018 km, 82.9° (Epoch: 27 October)

Event Time Altitude Azimuth Distance (km) Brightness Sun altitude
Rises 18:25:12 0° 174° (S) 3,645 7.3 -11.0°
Reaches altitude 10° 18:27:44 10° 171° (S) 2,690 6.6 -11.4°
Maximum altitude 18:33:45 59° 93° (E) 1,090 4.5 -12.3°
Drops below altitude 10° 18:39:41 10° 16° (NNE) 2,665 6.8 -13.3°
Sets 18:42:12 0° 13° (NNE) 3,609 7.6 -13.6°
